Weather History for Glens Falls, NY

Change the Weather History Date:

Saturday, January 19, 2013

  Actual Average Record
Temperature  
Mean Temperature 29 °F 17 °F  
Max Temperature 39 °F 28 °F 56 °F (1996)
Min Temperature 18 °F 7 °F -30 °F (1976)
Degree Days  
Heating Degree Days 36 48  
Month to date heating degree days 786 892  
Since 1 July heating degree days 3377 3830  
Cooling Degree Days 0 0  
Month to date cooling degree days 0 0  
Year to date cooling degree days 0 0  
Moisture  
Dew Point 17 °F    
Average Humidity 63    
Maximum Humidity 78    
Minimum Humidity 48    
Precipitation  
Precipitation 0.00 in 0.10 in 1.57 in (1996)
Month to date precipitation 0.22 1.74  
Year to date precipitation 0.22 1.74  
Sea Level Pressure  
Sea Level Pressure 30.03 in    
Wind  
Wind Speed 6 mph (SSW)    
Max Wind Speed 15 mph    
Max Gust Speed 22 mph    
Visibility 10 miles    
Events      
T = Trace of Precipitation, MM = Missing Value Source: NWS Daily Summary

Daily Weather History Graph

Daily Weather History Graph

Search for Another Location

Airport:

Trip Planner

Search our weather history database for the weather conditions in past years. The results will help you decide how hot, cold, wet, or windy it might be!

Date:

Astronomy

Jan. 19, 2013 Rise Set
Actual Time 7:21 AM EST 4:49 PM EST
Civil Twilight 6:50 AM EST 5:20 PM EST
Nautical Twilight 6:15 AM EST 5:55 PM EST
Astronomical Twilight 5:41 AM EST 6:29 PM EST
Moon 11:16 AM EST (1/19) 12:50 AM EST (1/19)
Length of Visible Light 10h 30m
Length of Day
9h 28m
First Quarter, 57% of the Moon is Illuminated
Jan 19
First Quarter
Jan 26
Full
Feb 3
Last Quarter
Feb 10
New
Feb 17
First Quarter

Hourly Weather History & Observations

Time (EST) Temp. Windchill Dew Point Humidity Pressure Visibility Wind Dir Wind Speed Gust Speed Precip Events Conditions
12:53 AM 19.0 °F - 8.1 °F 62% 30.27 in 10.0 mi Calm Calm - N/A   Overcast
1:53 AM 19.9 °F 14.9 °F 9.0 °F 62% 30.25 in 10.0 mi South 3.5 mph - N/A   Overcast
2:53 AM 21.0 °F 13.4 °F 10.0 °F 63% 30.22 in 10.0 mi SW 5.8 mph - N/A   Overcast
3:53 AM 21.9 °F 15.7 °F 10.0 °F 60% 30.17 in 10.0 mi SSW 4.6 mph - N/A   Overcast
4:53 AM 23.0 °F 15.8 °F 10.9 °F 60% 30.14 in 10.0 mi SW 5.8 mph - N/A   Overcast
5:53 AM 24.1 °F 14.4 °F 10.9 °F 57% 30.13 in 10.0 mi SSW 9.2 mph - N/A   Overcast
6:53 AM 25.0 °F 16.3 °F 12.0 °F 58% 30.12 in 10.0 mi SSW 8.1 mph - N/A   Mostly Cloudy
7:53 AM 26.1 °F 15.0 °F 12.9 °F 58% 30.10 in 10.0 mi SSW 12.7 mph - N/A   Overcast
8:53 AM 27.0 °F 17.3 °F 14.0 °F 58% 30.11 in 10.0 mi SW 10.4 mph 17.3 mph N/A   Overcast
9:53 AM 28.9 °F 19.2 °F 15.1 °F 56% 30.10 in 10.0 mi SSW 11.5 mph 19.6 mph N/A   Mostly Cloudy
10:53 AM 30.9 °F 21.2 °F 17.1 °F 57% 30.08 in 10.0 mi SSW 12.7 mph 18.4 mph N/A   Overcast
11:53 AM 34.0 °F 25.0 °F 18.0 °F 52% 30.03 in 10.0 mi South 12.7 mph - N/A   Overcast
12:53 PM 35.1 °F 26.4 °F 19.0 °F 52% 30.00 in 10.0 mi South 12.7 mph 21.9 mph N/A   Scattered Clouds
1:53 PM 36.0 °F 29.0 °F 19.9 °F 52% 29.99 in 10.0 mi South 9.2 mph 19.6 mph N/A   Overcast
2:53 PM 37.0 °F 29.8 °F 19.9 °F 50% 29.98 in 10.0 mi SSW 10.4 mph - N/A   Overcast
3:53 PM 37.9 °F 33.5 °F 21.0 °F 51% 29.97 in 10.0 mi SW 5.8 mph - N/A   Overcast
4:53 PM 37.0 °F 33.3 °F 21.9 °F 54% 29.96 in 10.0 mi SW 4.6 mph - N/A   Mostly Cloudy
5:53 PM 33.1 °F - 23.0 °F 66% 29.94 in 10.0 mi Calm Calm - N/A   Overcast
6:53 PM 28.9 °F 25.2 °F 23.0 °F 78% 29.93 in 10.0 mi South 3.5 mph - N/A   Partly Cloudy
7:53 PM 28.0 °F - 23.0 °F 81% 29.91 in 10.0 mi Calm Calm - N/A   Scattered Clouds
8:53 PM 28.0 °F - 21.9 °F 78% 29.88 in 10.0 mi Calm Calm - N/A   Partly Cloudy
9:53 PM 32.0 °F 28.7 °F 25.0 °F 75% 29.84 in 10.0 mi WSW 3.5 mph - N/A   Overcast
10:53 PM 37.0 °F 34.5 °F 23.0 °F 57% 29.82 in 10.0 mi SW 3.5 mph - N/A   Overcast
11:53 PM 37.4 °F 33.8 °F 24.8 °F 60% 29.77 in 10.0 mi SW 4.6 mph - N/A   Overcast